Flag for Argentina Weather past 2 weeks in Bahía Blanca, Buenos Aires, Argentina

Now
55 °F

Fog.


Feels Like: 52 °F
Forecast: 59 / 78 °F
Wind: 13 mph from North

Location: Mar Del Plata Aerodrome

Current Time: Aug 20, 2014 at 10:42:44 AM

Latest Report: Aug 20, 2014 at 10:00 AM


Visibility: 0 mi

Pressure: 30.04 "Hg

Humidity: 94%

Dew point: 54 °F

Location of Bahía BlancaLocation

Historic Weather in Bahía Blanca — Graph

°F

Bahía Blanca temperature yesterday

Maximum temperature yesterday: 61 °F (at 12:00 AM)
Minimum temperature yesterday: 48 °F (at 6:00 PM)
Average temperature yesterday: 52 °F

Past Weeks' High & Low Weather Summary

 TemperatureHumidityPressure
High73 °F (Aug 17, 3:00 PM)100% (Aug 20, 5:00 AM)30.33 "Hg (Aug 20, 5:00 AM)
Low30 °F (Aug 11, 2:00 AM)20% (Aug 13, 3:00 PM)29.80 "Hg (Aug 6, 2:00 PM)
Average49 °F70%30.07 "Hg
* Reported Aug 5 9:00 AM — Aug 20 9:00 AM, Bahía Blanca, Weather by CustomWeather, © 2014

Note: Actual official high and low records may vary slightly from our data, if they occured in-between our weather recording intervals... More about our weather records

Advertising

Bahía Blanca weather history for previous 24 hours

 ConditionsComfort  
Time TempWeatherWind HumidityBarometerVisibility
9:00 AM
Aug 20
54 °FFog.14 mph100%30.07 "Hg1 mi
8:00 AM54 °FFog.7 mph100%30.07 "Hg0 mi
7:00 AM52 °FFog.8 mph100%30.04 "Hg0 mi
6:00 AM50 °FClear.12 mph100%30.07 "Hg0 mi
5:00 AM50 °FFog.9 mph100%30.07 "Hg1 mi
3:00 AM50 °FClear.6 mph88%30.09 "Hg5 mi
2:00 AM50 °FClear.7 mph94%30.12 "Hg5 mi
1:00 AM50 °FClear.9 mph94%30.12 "Hg5 mi
12:00 AM50 °FClear.9 mph88%30.12 "Hg5 mi
11:00 PM
Aug 19
50 °FClear.8 mph88%30.15 "Hg5 mi
10:00 PM50 °FClear.14 mph88%30.15 "Hg4 mi
9:00 PM50 °FClear.8 mph82%30.15 "Hg5 mi
8:00 PM48 °FClear.7 mph82%30.15 "Hg5 mi
7:00 PM48 °FClear.10 mph82%30.15 "Hg5 mi
6:00 PM48 °FClear.10 mph82%30.15 "Hg5 mi
5:00 PM50 °FSunny.12 mph76%30.15 "Hg10 mi
4:00 PM50 °FSunny.16 mph76%30.15 "Hg10 mi
3:00 PM54 °FClear.14 mph58%30.15 "Hg6 mi
2:00 PM54 °FClear.14 mph67%30.15 "Hg6 mi
1:00 PM52 °FClear.16 mph72%30.18 "Hg6 mi
12:00 PM52 °FClear.14 mph72%30.18 "Hg6 mi
11:00 AM54 °FClear.15 mph63%30.18 "Hg6 mi
10:00 AM52 °FClear.15 mph67%30.15 "Hg6 mi
Weather by CustomWeather, © 2014

See weather overviewHow to use our weather pages